When you browse on this site, cookies collect data to enhance your experience and personalize the content and advertising you see.
Visit our Privacy Policy to learn more. By continuing to use the site, you agree to this use of cookies and data.

Hourly Weather Tivdiya

Today, 7 July, Tuesday

Time Temperature Precipitation Wind Pressure Humidity
00:00 +12°C° 0 mm 3 mps 745 mmHg 77%
01:00 +12°C° 0 mm 3 mps 746 mmHg 80%
02:00 +12°C° 0 mm 2 mps 746 mmHg 86%
03:00 +13°C° 0 mm 2 mps 746 mmHg 82%
04:00 +13°C° 0 mm 3 mps 746 mmHg 78%
05:00 +14°C° 0 mm 3 mps 747 mmHg 74%
06:00 +16°C° 0 mm 3 mps 747 mmHg 67%
07:00 +18°C° 0 mm 3 mps 747 mmHg 60%
08:00 +20°C° 0 mm 4 mps 747 mmHg 53%
09:00 +20°C° 0 mm 4 mps 747 mmHg 52%
10:00 +21°C° 0 mm 4 mps 747 mmHg 51%
11:00 +22°C° 0 mm 4 mps 747 mmHg 49%
12:00 +22°C° 0.1 mm 4 mps 747 mmHg 52%
13:00 +22°C° 0.1 mm 4 mps 747 mmHg 55%
14:00 +22°C° 0.1 mm 5 mps 747 mmHg 57%
15:00 +22°C° 0.1 mm 4 mps 747 mmHg 57%
16:00 +22°C° 0.1 mm 4 mps 747 mmHg 56%
17:00 +22°C° 0.1 mm 3 mps 747 mmHg 56%
18:00 +20°C° 0.1 mm 3 mps 747 mmHg 61%
19:00 +19°C° 0.1 mm 2 mps 747 mmHg 65%
20:00 +18°C° 0.1 mm 2 mps 747 mmHg 70%
21:00 +16°C° 0 mm 1 mps 747 mmHg 73%
22:00 +15°C° 0 mm 1 mps 747 mmHg 77%
23:00 +14°C° 0 mm 1 mps 747 mmHg 80%

Tomorrow, 8 July, Wednesday

Time Temperature Precipitation Wind Pressure Humidity
00:00 +13°C° 0 mm 1 mps 747 mmHg 83%
01:00 +13°C° 0 mm 1 mps 747 mmHg 86%
02:00 +12°C° 0 mm 1 mps 747 mmHg 89%
03:00 +13°C° 0 mm 1 mps 747 mmHg 86%
04:00 +13°C° 0 mm 0 mps 747 mmHg 84%
05:00 +14°C° 0 mm 0 mps 746 mmHg 82%
06:00 +15°C° 0 mm 0 mps 746 mmHg 78%
07:00 +16°C° 0 mm 1 mps 746 mmHg 75%
08:00 +18°C° 0 mm 1 mps 746 mmHg 72%
09:00 +18°C° 0.2 mm 1 mps 747 mmHg 75%
10:00 +18°C° 0.2 mm 1 mps 747 mmHg 79%
11:00 +18°C° 0.2 mm 1 mps 747 mmHg 82%
12:00 +16°C° 0.4 mm 1 mps 747 mmHg 85%
13:00 +16°C° 0.4 mm 1 mps 747 mmHg 88%
14:00 +16°C° 0.4 mm 2 mps 747 mmHg 91%
15:00 +16°C° 0.3 mm 2 mps 747 mmHg 91%
16:00 +15°C° 0.3 mm 2 mps 747 mmHg 91%
17:00 +15°C° 0.3 mm 2 mps 747 mmHg 91%
18:00 +15°C° 0.2 mm 2 mps 747 mmHg 91%
19:00 +15°C° 0.2 mm 2 mps 746 mmHg 91%
20:00 +15°C° 0.2 mm 2 mps 746 mmHg 92%
21:00 +14°C° 0 mm 2 mps 747 mmHg 92%
22:00 +13°C° 0 mm 2 mps 747 mmHg 93%
23:00 +12°C° 0 mm 3 mps 747 mmHg 93%

Day after tomorrow, 9 July, Thursday

Time Temperature Precipitation Wind Pressure Humidity
00:00 +12°C° 0 mm 2 mps 748 mmHg 94%
01:00 +10°C° 0 mm 2 mps 748 mmHg 94%
02:00 +9°C° 0 mm 2 mps 748 mmHg 95%
03:00 +10°C° 0 mm 2 mps 748 mmHg 93%
04:00 +12°C° 0 mm 2 mps 748 mmHg 91%
05:00 +13°C° 0 mm 2 mps 748 mmHg 89%
06:00 +15°C° 0 mm 1 mps 749 mmHg 78%
07:00 +18°C° 0 mm 1 mps 749 mmHg 66%
08:00 +20°C° 0 mm 1 mps 749 mmHg 55%
09:00 +20°C° 0.2 mm 2 mps 749 mmHg 56%
10:00 +20°C° 0.2 mm 2 mps 749 mmHg 57%
11:00 +20°C° 0.2 mm 3 mps 749 mmHg 57%
12:00 +20°C° 0.7 mm 3 mps 749 mmHg 62%
13:00 +20°C° 0.7 mm 3 mps 749 mmHg 67%
14:00 +19°C° 0.7 mm 3 mps 749 mmHg 71%
15:00 +19°C° 0.7 mm 3 mps 749 mmHg 74%
16:00 +19°C° 0.7 mm 2 mps 749 mmHg 76%
17:00 +18°C° 0.7 mm 2 mps 749 mmHg 79%
18:00 +17°C° 0.1 mm 2 mps 749 mmHg 81%
19:00 +16°C° 0.1 mm 2 mps 749 mmHg 84%
20:00 +15°C° 0.1 mm 2 mps 749 mmHg 86%
21:00 +14°C° 0 mm 2 mps 749 mmHg 87%
22:00 +13°C° 0 mm 2 mps 749 mmHg 89%
23:00 +12°C° 0 mm 2 mps 749 mmHg 90%

10 July, Friday

Time Temperature Precipitation Wind Pressure Humidity
00:00 +10°C° 0 mm 2 mps 749 mmHg 92%
01:00 +10°C° 0 mm 2 mps 749 mmHg 93%
02:00 +9°C° 0 mm 2 mps 749 mmHg 95%
03:00 +10°C° 0 mm 2 mps 749 mmHg 92%
04:00 +10°C° 0 mm 2 mps 749 mmHg 90%
05:00 +12°C° 0 mm 2 mps 749 mmHg 87%
06:00 +13°C° 0 mm 3 mps 749 mmHg 80%
07:00 +14°C° 0 mm 3 mps 750 mmHg 73%
08:00 +17°C° 0 mm 3 mps 750 mmHg 66%
09:00 +18°C° 0 mm 4 mps 750 mmHg 62%
10:00 +19°C° 0 mm 4 mps 750 mmHg 58%
11:00 +20°C° 0 mm 4 mps 750 mmHg 54%
12:00 +20°C° 0.3 mm 4 mps 750 mmHg 54%
13:00 +20°C° 0.3 mm 5 mps 751 mmHg 54%
14:00 +20°C° 0.3 mm 5 mps 751 mmHg 54%
15:00 +20°C° 0.3 mm 4 mps 751 mmHg 56%
16:00 +20°C° 0.3 mm 4 mps 751 mmHg 57%
17:00 +20°C° 0.3 mm 4 mps 751 mmHg 58%
18:00 +19°C° 0.1 mm 3 mps 752 mmHg 60%
19:00 +17°C° 0.1 mm 3 mps 752 mmHg 63%
20:00 +16°C° 0.1 mm 3 mps 752 mmHg 65%
21:00 +14°C° 0 mm 3 mps 753 mmHg 67%
22:00 +13°C° 0 mm 3 mps 753 mmHg 70%
23:00 +12°C° 0 mm 3 mps 753 mmHg 72%

11 July, Saturday

Time Temperature Precipitation Wind Pressure Humidity
00:00 +11°C° 0 mm 3 mps 753 mmHg 75%
01:00 +10°C° 0 mm 2 mps 753 mmHg 77%
02:00 +10°C° 0 mm 2 mps 753 mmHg 79%
03:00 +12°C° 0 mm 2 mps 753 mmHg 75%
04:00 +13°C° 0 mm 2 mps 753 mmHg 70%
05:00 +14°C° 0 mm 2 mps 753 mmHg 66%
06:00 +13°C° 0 mm 3 mps 752 mmHg 68%
07:00 +14°C° 0 mm 3 mps 751 mmHg 69%
08:00 +15°C° 0 mm 4 mps 751 mmHg 70%
09:00 +14°C° 1.5 mm 4 mps 750 mmHg 79%
10:00 +14°C° 1.5 mm 5 mps 750 mmHg 87%
11:00 +13°C° 1.5 mm 5 mps 749 mmHg 96%
12:00 +13°C° 1 mm 5 mps 749 mmHg 96%
13:00 +14°C° 1 mm 5 mps 748 mmHg 96%
14:00 +14°C° 1 mm 5 mps 748 mmHg 97%
15:00 +15°C° 0.2 mm 5 mps 748 mmHg 95%
16:00 +17°C° 0.2 mm 4 mps 747 mmHg 93%
17:00 +18°C° 0.2 mm 4 mps 747 mmHg 91%
18:00 +18°C° 0 mm 3 mps 747 mmHg 90%
19:00 +17°C° 0 mm 3 mps 747 mmHg 88%
20:00 +17°C° 0 mm 3 mps 747 mmHg 86%
21:00 +16°C° 0 mm 3 mps 748 mmHg 85%
22:00 +14°C° 0 mm 3 mps 748 mmHg 84%
23:00 +12°C° 0 mm 3 mps 748 mmHg 83%

12 July, Sunday

Time Temperature Precipitation Wind Pressure Humidity
00:00 +12°C° 0 mm 3 mps 748 mmHg 83%
01:00 +12°C° 0 mm 4 mps 748 mmHg 83%
02:00 +12°C° 0 mm 4 mps 748 mmHg 82%
03:00 +13°C° 0 mm 5 mps 748 mmHg 80%
04:00 +13°C° 0 mm 5 mps 748 mmHg 78%
05:00 +14°C° 0 mm 5 mps 748 mmHg 75%
06:00 +14°C° 0 mm 6 mps 748 mmHg 71%
07:00 +15°C° 0 mm 6 mps 748 mmHg 68%
08:00 +16°C° 0 mm 6 mps 748 mmHg 64%
09:00 +16°C° 0 mm 6 mps 749 mmHg 64%
10:00 +16°C° 0 mm 6 mps 749 mmHg 64%
11:00 +16°C° 0 mm 6 mps 749 mmHg 65%
12:00 +17°C° 0 mm 6 mps 750 mmHg 64%
13:00 +17°C° 0 mm 6 mps 750 mmHg 64%
14:00 +17°C° 0 mm 6 mps 750 mmHg 64%
15:00 +19°C° 0 mm 5 mps 751 mmHg 63%
16:00 +19°C° 0 mm 5 mps 751 mmHg 61%
17:00 +19°C° 0 mm 5 mps 751 mmHg 60%
18:00 +18°C° 0 mm 4 mps 752 mmHg 66%
19:00 +17°C° 0 mm 3 mps 752 mmHg 73%
20:00 +16°C° 0 mm 3 mps 752 mmHg 79%
21:00 +14°C° 0 mm 3 mps 752 mmHg 84%
22:00 +13°C° 0 mm 2 mps 753 mmHg 89%
23:00 +12°C° 0 mm 2 mps 753 mmHg 94%
Show more